owner,sensor,date,latitude,longitude,vertical_datum,sea_water_practical_salinity,qcFlag 
TCOON,ioos:station:TCOON:170:1,2017-08-01T00:30:00Z,27.2970,-97.4049,0.0,45.8,1111122 
TCOON,ioos:station:TCOON:170:1,2017-08-01T01:30:00Z,27.2970,-97.4049,0.0,45.9,1111122 
TCOON,ioos:station:TCOON:170:1,2017-08-01T10:30:00Z,27.2970,-97.4049,0.0,46.3,1111122 
TCOON,ioos:station:TCOON:170:1,2017-08-01T14:30:00Z,27.2970,-97.4049,0.0,46.2,1111122 
TCOON,ioos:station:TCOON:170:1,2017-08-01T15:30:00Z,27.2970,-97.4049,0.0,46.3,1111122 
TCOON,ioos:station:TCOON:170:1,2017-08-01T16:30:00Z,27.2970,-97.4049,0.0,46.6,1111122 
TCOON,ioos:station:TCOON:170:1,2017-08-01T17:30:00Z,27.2970,-97.4049,0.0,46.6,1111122 
TCOON,ioos:station:TCOON:170:1,2017-08-01T19:30:00Z,27.2970,-97.4049,0.0,46.8,1111122 
TCOON,ioos:station:TCOON:170:1,2017-08-01T20:30:00Z,27.2970,-97.4049,0.0,46.8,1111122 
TCOON,ioos:station:TCOON:170:1,2017-08-01T22:00:00Z,27.2970,-97.4049,0.0,47.0,1111122 
TCOON,ioos:station:TCOON:170:1,2017-08-01T22:30:00Z,27.2970,-97.4049,0.0,47.0,1111122 
TCOON,ioos:station:TCOON:170:1,2017-08-02T01:30:00Z,27.2970,-97.4049,0.0,47.4,1111122 
TCOON,ioos:station:TCOON:170:1,2017-08-02T08:30:00Z,27.2970,-97.4049,0.0,47.4,1111122 
TCOON,ioos:station:TCOON:170:1,2017-08-02T11:30:00Z,27.2970,-97.4049,0.0,47.5,1111122 
TCOON,ioos:station:TCOON:170:1,2017-08-02T13:30:00Z,27.2970,-97.4049,0.0,47.6,1111122 
TCOON,ioos:station:TCOON:170:1,2017-08-02T14:30:00Z,27.2970,-97.4049,0.0,47.5,1111122 
TCOON,ioos:station:TCOON:170:1,2017-08-02T15:30:00Z,27.2970,-97.4049,0.0,47.5,1111122 
TCOON,ioos:station:TCOON:170:1,2017-08-02T16:30:00Z,27.2970,-97.4049,0.0,47.5,1111122 
TCOON,ioos:station:TCOON:170:1,2017-08-02T17:30:00Z,27.2970,-97.4049,0.0,47.6,1111122 
TCOON,ioos:station:TCOON:170:1,2017-08-02T18:30:00Z,27.2970,-97.4049,0.0,47.6,1111122 
TCOON,ioos:station:TCOON:170:1,2017-08-02T20:30:00Z,27.2970,-97.4049,0.0,47.7,1111122 
TCOON,ioos:station:TCOON:170:1,2017-08-03T01:30:00Z,27.2970,-97.4049,0.0,47.9,1111122 
TCOON,ioos:station:TCOON:170:1,2017-08-03T05:30:00Z,27.2970,-97.4049,0.0,47.9,1111122 
TCOON,ioos:station:TCOON:170:1,2017-08-03T07:30:00Z,27.2970,-97.4049,0.0,47.8,1111122 
TCOON,ioos:station:TCOON:170:1,2017-08-03T13:30:00Z,27.2970,-97.4049,0.0,47.8,1111122 
TCOON,ioos:station:TCOON:170:1,2017-08-03T14:30:00Z,27.2970,-97.4049,0.0,47.8,1111122 
TCOON,ioos:station:TCOON:170:1,2017-08-03T15:30:00Z,27.2970,-97.4049,0.0,47.7,1111122 
TCOON,ioos:station:TCOON:170:1,2017-08-03T16:30:00Z,27.2970,-97.4049,0.0,47.8,1111122 
TCOON,ioos:station:TCOON:170:1,2017-08-03T19:00:00Z,27.2970,-97.4049,0.0,44.5,1111122 
TCOON,ioos:station:TCOON:170:1,2017-08-03T21:30:00Z,27.2970,-97.4049,0.0,46.4,1111122 
TCOON,ioos:station:TCOON:170:1,2017-08-04T06:30:00Z,27.2970,-97.4049,0.0,47.3,1111122 
TCOON,ioos:station:TCOON:170:1,2017-08-04T11:30:00Z,27.2970,-97.4049,0.0,47.8,1111122 
TCOON,ioos:station:TCOON:170:1,2017-08-04T20:00:00Z,27.2970,-97.4049,0.0,47.9,1111122 
TCOON,ioos:station:TCOON:170:1,2017-08-04T21:30:00Z,27.2970,-97.4049,0.0,48.0,1111122 
TCOON,ioos:station:TCOON:170:1,2017-08-04T22:30:00Z,27.2970,-97.4049,0.0,48.1,1111122 
TCOON,ioos:station:TCOON:170:1,2017-08-05T05:30:00Z,27.2970,-97.4049,0.0,47.8,1111122 
TCOON,ioos:station:TCOON:170:1,2017-08-05T06:30:00Z,27.2970,-97.4049,0.0,47.6,1111122 
TCOON,ioos:station:TCOON:170:1,2017-08-05T07:30:00Z,27.2970,-97.4049,0.0,47.5,1111122 
TCOON,ioos:station:TCOON:170:1,2017-08-05T08:30:00Z,27.2970,-97.4049,0.0,47.3,1111122 
TCOON,ioos:station:TCOON:170:1,2017-08-05T09:30:00Z,27.2970,-97.4049,0.0,47.4,1111122 
TCOON,ioos:station:TCOON:170:1,2017-08-05T10:30:00Z,27.2970,-97.4049,0.0,47.4,1111122 
TCOON,ioos:station:TCOON:170:1,2017-08-05T14:30:00Z,27.2970,-97.4049,0.0,47.2,1111122 
TCOON,ioos:station:TCOON:170:1,2017-08-05T17:00:00Z,27.2970,-97.4049,0.0,47.0,1111122 
TCOON,ioos:station:TCOON:170:1,2017-08-05T18:00:00Z,27.2970,-97.4049,0.0,47.0,1111122 
TCOON,ioos:station:TCOON:170:1,2017-08-05T18:30:00Z,27.2970,-97.4049,0.0,47.2,1111122 
TCOON,ioos:station:TCOON:170:1,2017-08-05T21:00:00Z,27.2970,-97.4049,0.0,47.2,1111122 
TCOON,ioos:station:TCOON:170:1,2017-08-05T22:00:00Z,27.2970,-97.4049,0.0,47.1,1111122 
TCOON,ioos:station:TCOON:170:1,2017-08-06T03:30:00Z,27.2970,-97.4049,0.0,46.6,1111122 
TCOON,ioos:station:TCOON:170:1,2017-08-06T04:30:00Z,27.2970,-97.4049,0.0,46.2,1111122 
TCOON,ioos:station:TCOON:170:1,2017-08-06T05:30:00Z,27.2970,-97.4049,0.0,45.4,1111122 
TCOON,ioos:station:TCOON:170:1,2017-08-06T06:30:00Z,27.2970,-97.4049,0.0,45.5,1111122 
TCOON,ioos:station:TCOON:170:1,2017-08-06T07:30:00Z,27.2970,-97.4049,0.0,45.7,1111122 
TCOON,ioos:station:TCOON:170:1,2017-08-06T08:30:00Z,27.2970,-97.4049,0.0,46.0,1111122 
TCOON,ioos:station:TCOON:170:1,2017-08-06T09:30:00Z,27.2970,-97.4049,0.0,45.6,1111122 
TCOON,ioos:station:TCOON:170:1,2017-08-06T10:30:00Z,27.2970,-97.4049,0.0,45.5,1111122 
TCOON,ioos:station:TCOON:170:1,2017-08-06T11:30:00Z,27.2970,-97.4049,0.0,45.3,1111122 
TCOON,ioos:station:TCOON:170:1,2017-08-06T12:30:00Z,27.2970,-97.4049,0.0,45.2,1111122 
TCOON,ioos:station:TCOON:170:1,2017-08-06T13:30:00Z,27.2970,-97.4049,0.0,45.2,1111122 
TCOON,ioos:station:TCOON:170:1,2017-08-06T14:30:00Z,27.2970,-97.4049,0.0,45.1,1111122 
TCOON,ioos:station:TCOON:170:1,2017-08-06T15:30:00Z,27.2970,-97.4049,0.0,45.1,1111122 
TCOON,ioos:station:TCOON:170:1,2017-08-06T16:30:00Z,27.2970,-97.4049,0.0,45.2,1111122 
TCOON,ioos:station:TCOON:170:1,2017-08-06T17:30:00Z,27.2970,-97.4049,0.0,45.3,1111122 
TCOON,ioos:station:TCOON:170:1,2017-08-06T18:30:00Z,27.2970,-97.4049,0.0,45.3,1111122 
TCOON,ioos:station:TCOON:170:1,2017-08-06T19:30:00Z,27.2970,-97.4049,0.0,45.4,1111122 
TCOON,ioos:station:TCOON:170:1,2017-08-06T20:30:00Z,27.2970,-97.4049,0.0,45.5,1111122 
TCOON,ioos:station:TCOON:170:1,2017-08-06T21:30:00Z,27.2970,-97.4049,0.0,45.7,1111122 
TCOON,ioos:station:TCOON:170:1,2017-08-06T22:30:00Z,27.2970,-97.4049,0.0,45.9,1111122 
TCOON,ioos:station:TCOON:170:1,2017-08-06T23:30:00Z,27.2970,-97.4049,0.0,45.9,1111122 
TCOON,ioos:station:TCOON:170:1,2017-08-07T00:30:00Z,27.2970,-97.4049,0.0,46.0,1111122 
TCOON,ioos:station:TCOON:170:1,2017-08-07T01:30:00Z,27.2970,-97.4049,0.0,46.0,1111122 
TCOON,ioos:station:TCOON:170:1,2017-08-07T02:30:00Z,27.2970,-97.4049,0.0,46.0,1111122 
TCOON,ioos:station:TCOON:170:1,2017-08-07T03:30:00Z,27.2970,-97.4049,0.0,45.8,1111122 
TCOON,ioos:station:TCOON:170:1,2017-08-07T04:30:00Z,27.2970,-97.4049,0.0,44.7,1111122 
TCOON,ioos:station:TCOON:170:1,2017-08-07T05:30:00Z,27.2970,-97.4049,0.0,44.5,1111122 
TCOON,ioos:station:TCOON:170:1,2017-08-07T06:30:00Z,27.2970,-97.4049,0.0,44.8,1111122 
TCOON,ioos:station:TCOON:170:1,2017-08-07T08:30:00Z,27.2970,-97.4049,0.0,44.1,1111122 
TCOON,ioos:station:TCOON:170:1,2017-08-07T09:30:00Z,27.2970,-97.4049,0.0,44.0,1111122 
TCOON,ioos:station:TCOON:170:1,2017-08-07T10:30:00Z,27.2970,-97.4049,0.0,43.7,1111122 
TCOON,ioos:station:TCOON:170:1,2017-08-07T11:30:00Z,27.2970,-97.4049,0.0,43.9,1111122 
TCOON,ioos:station:TCOON:170:1,2017-08-07T12:30:00Z,27.2970,-97.4049,0.0,43.8,1111122 
TCOON,ioos:station:TCOON:170:1,2017-08-07T13:30:00Z,27.2970,-97.4049,0.0,43.7,1111122 
TCOON,ioos:station:TCOON:170:1,2017-08-07T14:30:00Z,27.2970,-97.4049,0.0,43.8,1111122 
TCOON,ioos:station:TCOON:170:1,2017-08-07T15:30:00Z,27.2970,-97.4049,0.0,43.8,1111122 
TCOON,ioos:station:TCOON:170:1,2017-08-07T17:30:00Z,27.2970,-97.4049,0.0,43.7,1111122 
TCOON,ioos:station:TCOON:170:1,2017-08-07T18:30:00Z,27.2970,-97.4049,0.0,43.7,1111122 
TCOON,ioos:station:TCOON:170:1,2017-08-07T19:30:00Z,27.2970,-97.4049,0.0,43.8,1111122 
TCOON,ioos:station:TCOON:170:1,2017-08-07T20:30:00Z,27.2970,-97.4049,0.0,43.9,1111122 
TCOON,ioos:station:TCOON:170:1,2017-08-07T21:30:00Z,27.2970,-97.4049,0.0,43.9,1111122 
TCOON,ioos:station:TCOON:170:1,2017-08-07T22:30:00Z,27.2970,-97.4049,0.0,43.9,1111122 
TCOON,ioos:station:TCOON:170:1,2017-08-07T23:30:00Z,27.2970,-97.4049,0.0,44.0,1111122 
TCOON,ioos:station:TCOON:170:1,2017-08-08T00:30:00Z,27.2970,-97.4049,0.0,44.3,1111122 
TCOON,ioos:station:TCOON:170:1,2017-08-08T01:30:00Z,27.2970,-97.4049,0.0,44.4,1111122 
TCOON,ioos:station:TCOON:170:1,2017-08-08T02:30:00Z,27.2970,-97.4049,0.0,44.2,1111122 
TCOON,ioos:station:TCOON:170:1,2017-08-08T03:30:00Z,27.2970,-97.4049,0.0,44.3,1111122 
TCOON,ioos:station:TCOON:170:1,2017-08-08T04:30:00Z,27.2970,-97.4049,0.0,44.2,1111122 
TCOON,ioos:station:TCOON:170:1,2017-08-08T05:30:00Z,27.2970,-97.4049,0.0,44.3,1111122 
TCOON,ioos:station:TCOON:170:1,2017-08-08T07:30:00Z,27.2970,-97.4049,0.0,44.3,1111122 
TCOON,ioos:station:TCOON:170:1,2017-08-08T11:30:00Z,27.2970,-97.4049,0.0,44.3,1111122 
TCOON,ioos:station:TCOON:170:1,2017-08-08T14:30:00Z,27.2970,-97.4049,0.0,44.3,1111122 
TCOON,ioos:station:TCOON:170:1,2017-08-08T15:30:00Z,27.2970,-97.4049,0.0,44.3,1111122 
TCOON,ioos:station:TCOON:170:1,2017-08-08T16:30:00Z,27.2970,-97.4049,0.0,44.3,1111122 
TCOON,ioos:station:TCOON:170:1,2017-08-08T17:30:00Z,27.2970,-97.4049,0.0,44.3,1111122 
TCOON,ioos:station:TCOON:170:1,2017-08-08T18:30:00Z,27.2970,-97.4049,0.0,44.4,1111122 
TCOON,ioos:station:TCOON:170:1,2017-08-08T20:30:00Z,27.2970,-97.4049,0.0,44.4,1111122 
TCOON,ioos:station:TCOON:170:1,2017-08-08T23:30:00Z,27.2970,-97.4049,0.0,44.5,1111122 
TCOON,ioos:station:TCOON:170:1,2017-08-09T00:30:00Z,27.2970,-97.4049,0.0,44.5,1111122 
TCOON,ioos:station:TCOON:170:1,2017-08-09T01:30:00Z,27.2970,-97.4049,0.0,44.6,1111122 
TCOON,ioos:station:TCOON:170:1,2017-08-09T02:30:00Z,27.2970,-97.4049,0.0,44.7,1111122 
TCOON,ioos:station:TCOON:170:1,2017-08-09T04:30:00Z,27.2970,-97.4049,0.0,44.8,1111122 
TCOON,ioos:station:TCOON:170:1,2017-08-09T10:30:00Z,27.2970,-97.4049,0.0,45.1,1111122 
TCOON,ioos:station:TCOON:170:1,2017-08-09T13:30:00Z,27.2970,-97.4049,0.0,45.0,1111122 
TCOON,ioos:station:TCOON:170:1,2017-08-09T14:30:00Z,27.2970,-97.4049,0.0,45.1,1111122 
TCOON,ioos:station:TCOON:170:1,2017-08-09T15:30:00Z,27.2970,-97.4049,0.0,45.1,1111122 
TCOON,ioos:station:TCOON:170:1,2017-08-09T16:30:00Z,27.2970,-97.4049,0.0,45.1,1111122 
TCOON,ioos:station:TCOON:170:1,2017-08-09T23:30:00Z,27.2970,-97.4049,0.0,46.3,1111122 
TCOON,ioos:station:TCOON:170:1,2017-08-10T00:30:00Z,27.2970,-97.4049,0.0,46.4,1111122 
TCOON,ioos:station:TCOON:170:1,2017-08-10T01:30:00Z,27.2970,-97.4049,0.0,46.5,1111122 
TCOON,ioos:station:TCOON:170:1,2017-08-10T02:30:00Z,27.2970,-97.4049,0.0,46.3,1111122 
TCOON,ioos:station:TCOON:170:1,2017-08-10T03:30:00Z,27.2970,-97.4049,0.0,46.4,1111122 
TCOON,ioos:station:TCOON:170:1,2017-08-10T04:30:00Z,27.2970,-97.4049,0.0,46.9,1111122 
TCOON,ioos:station:TCOON:170:1,2017-08-10T05:30:00Z,27.2970,-97.4049,0.0,47.0,1111122 
TCOON,ioos:station:TCOON:170:1,2017-08-10T06:30:00Z,27.2970,-97.4049,0.0,47.0,1111122 
TCOON,ioos:station:TCOON:170:1,2017-08-10T09:30:00Z,27.2970,-97.4049,0.0,45.5,1111122 
TCOON,ioos:station:TCOON:170:1,2017-08-10T10:30:00Z,27.2970,-97.4049,0.0,45.3,1111122 
TCOON,ioos:station:TCOON:170:1,2017-08-10T11:30:00Z,27.2970,-97.4049,0.0,45.2,1111122 
TCOON,ioos:station:TCOON:170:1,2017-08-10T12:30:00Z,27.2970,-97.4049,0.0,45.5,1111122 
TCOON,ioos:station:TCOON:170:1,2017-08-10T13:30:00Z,27.2970,-97.4049,0.0,45.5,1111122 
TCOON,ioos:station:TCOON:170:1,2017-08-10T14:30:00Z,27.2970,-97.4049,0.0,45.5,1111122 
TCOON,ioos:station:TCOON:170:1,2017-08-10T15:30:00Z,27.2970,-97.4049,0.0,45.4,1111122 
TCOON,ioos:station:TCOON:170:1,2017-08-10T16:30:00Z,27.2970,-97.4049,0.0,45.6,1111122 
TCOON,ioos:station:TCOON:170:1,2017-08-10T17:30:00Z,27.2970,-97.4049,0.0,45.5,1111122 
TCOON,ioos:station:TCOON:170:1,2017-08-10T18:30:00Z,27.2970,-97.4049,0.0,45.6,1111122 
TCOON,ioos:station:TCOON:170:1,2017-08-10T19:30:00Z,27.2970,-97.4049,0.0,45.8,1111122 
TCOON,ioos:station:TCOON:170:1,2017-08-10T20:30:00Z,27.2970,-97.4049,0.0,45.9,1111122 
TCOON,ioos:station:TCOON:170:1,2017-08-10T22:30:00Z,27.2970,-97.4049,0.0,46.2,1111122 
TCOON,ioos:station:TCOON:170:1,2017-08-10T23:30:00Z,27.2970,-97.4049,0.0,46.4,1111122 
TCOON,ioos:station:TCOON:170:1,2017-08-11T00:30:00Z,27.2970,-97.4049,0.0,46.6,1111122 
TCOON,ioos:station:TCOON:170:1,2017-08-11T11:30:00Z,27.2970,-97.4049,0.0,46.4,1111122 
TCOON,ioos:station:TCOON:170:1,2017-08-11T14:30:00Z,27.2970,-97.4049,0.0,46.8,1111122 
TCOON,ioos:station:TCOON:170:1,2017-08-11T15:30:00Z,27.2970,-97.4049,0.0,46.7,1111122 
TCOON,ioos:station:TCOON:170:1,2017-08-11T16:30:00Z,27.2970,-97.4049,0.0,46.6,1111122 
TCOON,ioos:station:TCOON:170:1,2017-08-11T17:30:00Z,27.2970,-97.4049,0.0,46.5,1111122 
TCOON,ioos:station:TCOON:170:1,2017-08-11T18:30:00Z,27.2970,-97.4049,0.0,46.5,1111122 
TCOON,ioos:station:TCOON:170:1,2017-08-11T19:30:00Z,27.2970,-97.4049,0.0,46.5,1111122 
TCOON,ioos:station:TCOON:170:1,2017-08-11T21:30:00Z,27.2970,-97.4049,0.0,47.0,1111122 
TCOON,ioos:station:TCOON:170:1,2017-08-11T23:30:00Z,27.2970,-97.4049,0.0,47.3,1111122 
TCOON,ioos:station:TCOON:170:1,2017-08-12T01:30:00Z,27.2970,-97.4049,0.0,47.1,1111122 
TCOON,ioos:station:TCOON:170:1,2017-08-12T03:30:00Z,27.2970,-97.4049,0.0,47.2,1111122 
TCOON,ioos:station:TCOON:170:1,2017-08-12T04:30:00Z,27.2970,-97.4049,0.0,47.1,1111122 
TCOON,ioos:station:TCOON:170:1,2017-08-12T05:30:00Z,27.2970,-97.4049,0.0,47.0,1111122 
TCOON,ioos:station:TCOON:170:1,2017-08-12T07:30:00Z,27.2970,-97.4049,0.0,47.0,1111122 
TCOON,ioos:station:TCOON:170:1,2017-08-12T08:30:00Z,27.2970,-97.4049,0.0,46.9,1111122 
TCOON,ioos:station:TCOON:170:1,2017-08-12T09:30:00Z,27.2970,-97.4049,0.0,46.7,1111122 
TCOON,ioos:station:TCOON:170:1,2017-08-12T10:30:00Z,27.2970,-97.4049,0.0,46.8,1111122 
TCOON,ioos:station:TCOON:170:1,2017-08-12T11:30:00Z,27.2970,-97.4049,0.0,47.0,1111122 
TCOON,ioos:station:TCOON:170:1,2017-08-12T12:30:00Z,27.2970,-97.4049,0.0,46.9,1111122 
TCOON,ioos:station:TCOON:170:1,2017-08-12T13:30:00Z,27.2970,-97.4049,0.0,46.9,1111122 
TCOON,ioos:station:TCOON:170:1,2017-08-12T14:30:00Z,27.2970,-97.4049,0.0,46.9,1111122 
TCOON,ioos:station:TCOON:170:1,2017-08-12T15:30:00Z,27.2970,-97.4049,0.0,47.0,1111122 
TCOON,ioos:station:TCOON:170:1,2017-08-12T16:30:00Z,27.2970,-97.4049,0.0,46.9,1111122 
TCOON,ioos:station:TCOON:170:1,2017-08-12T17:30:00Z,27.2970,-97.4049,0.0,46.8,1111122 
TCOON,ioos:station:TCOON:170:1,2017-08-13T01:30:00Z,27.2970,-97.4049,0.0,47.1,1111122 
TCOON,ioos:station:TCOON:170:1,2017-08-13T02:30:00Z,27.2970,-97.4049,0.0,47.2,1111122 
TCOON,ioos:station:TCOON:170:1,2017-08-13T03:30:00Z,27.2970,-97.4049,0.0,47.0,1111122 
TCOON,ioos:station:TCOON:170:1,2017-08-13T04:30:00Z,27.2970,-97.4049,0.0,46.6,1111122 
TCOON,ioos:station:TCOON:170:1,2017-08-13T05:30:00Z,27.2970,-97.4049,0.0,46.7,1111122 
TCOON,ioos:station:TCOON:170:1,2017-08-13T06:30:00Z,27.2970,-97.4049,0.0,46.7,1111122 
TCOON,ioos:station:TCOON:170:1,2017-08-13T07:30:00Z,27.2970,-97.4049,0.0,46.6,1111122 
TCOON,ioos:station:TCOON:170:1,2017-08-13T08:30:00Z,27.2970,-97.4049,0.0,46.1,1111122 
TCOON,ioos:station:TCOON:170:1,2017-08-13T09:30:00Z,27.2970,-97.4049,0.0,46.0,1111122 
TCOON,ioos:station:TCOON:170:1,2017-08-13T12:30:00Z,27.2970,-97.4049,0.0,46.2,1111122 
TCOON,ioos:station:TCOON:170:1,2017-08-13T15:30:00Z,27.2970,-97.4049,0.0,46.3,1111122 
TCOON,ioos:station:TCOON:170:1,2017-08-13T16:30:00Z,27.2970,-97.4049,0.0,46.2,1111122 
TCOON,ioos:station:TCOON:170:1,2017-08-13T23:30:00Z,27.2970,-97.4049,0.0,46.3,1111122 
TCOON,ioos:station:TCOON:170:1,2017-08-14T00:30:00Z,27.2970,-97.4049,0.0,46.3,1111122 
TCOON,ioos:station:TCOON:170:1,2017-08-14T04:30:00Z,27.2970,-97.4049,0.0,45.6,1111122 
TCOON,ioos:station:TCOON:170:1,2017-08-14T05:30:00Z,27.2970,-97.4049,0.0,45.2,1111122 
TCOON,ioos:station:TCOON:170:1,2017-08-14T06:30:00Z,27.2970,-97.4049,0.0,45.3,1111122 
TCOON,ioos:station:TCOON:170:1,2017-08-14T09:30:00Z,27.2970,-97.4049,0.0,45.5,1111122 
TCOON,ioos:station:TCOON:170:1,2017-08-14T10:30:00Z,27.2970,-97.4049,0.0,45.5,1111122 
TCOON,ioos:station:TCOON:170:1,2017-08-14T11:30:00Z,27.2970,-97.4049,0.0,45.5,1111122 
TCOON,ioos:station:TCOON:170:1,2017-08-14T12:30:00Z,27.2970,-97.4049,0.0,45.8,1111122 
TCOON,ioos:station:TCOON:170:1,2017-08-14T13:30:00Z,27.2970,-97.4049,0.0,45.8,1111122 
TCOON,ioos:station:TCOON:170:1,2017-08-14T14:30:00Z,27.2970,-97.4049,0.0,46.0,1111122 
TCOON,ioos:station:TCOON:170:1,2017-08-14T15:30:00Z,27.2970,-97.4049,0.0,45.9,1111122 
TCOON,ioos:station:TCOON:170:1,2017-08-14T18:30:00Z,27.2970,-97.4049,0.0,46.0,1111122 
TCOON,ioos:station:TCOON:170:1,2017-08-14T20:30:00Z,27.2970,-97.4049,0.0,45.9,1111122 
TCOON,ioos:station:TCOON:170:1,2017-08-14T23:30:00Z,27.2970,-97.4049,0.0,46.3,1111122 
TCOON,ioos:station:TCOON:170:1,2017-08-15T00:30:00Z,27.2970,-97.4049,0.0,46.5,1111122 
TCOON,ioos:station:TCOON:170:1,2017-08-15T01:30:00Z,27.2970,-97.4049,0.0,46.5,1111122 
TCOON,ioos:station:TCOON:170:1,2017-08-15T02:30:00Z,27.2970,-97.4049,0.0,46.5,1111122 
TCOON,ioos:station:TCOON:170:1,2017-08-15T03:30:00Z,27.2970,-97.4049,0.0,46.5,1111122 
TCOON,ioos:station:TCOON:170:1,2017-08-15T04:30:00Z,27.2970,-97.4049,0.0,46.0,1111122 
TCOON,ioos:station:TCOON:170:1,2017-08-15T05:30:00Z,27.2970,-97.4049,0.0,45.6,1111122 
TCOON,ioos:station:TCOON:170:1,2017-08-15T07:30:00Z,27.2970,-97.4049,0.0,45.6,1111122 
TCOON,ioos:station:TCOON:170:1,2017-08-15T08:30:00Z,27.2970,-97.4049,0.0,45.4,1111122 
TCOON,ioos:station:TCOON:170:1,2017-08-15T09:30:00Z,27.2970,-97.4049,0.0,45.4,1111122 
TCOON,ioos:station:TCOON:170:1,2017-08-15T10:30:00Z,27.2970,-97.4049,0.0,45.5,1111122 
TCOON,ioos:station:TCOON:170:1,2017-08-15T12:30:00Z,27.2970,-97.4049,0.0,45.5,1111122 
TCOON,ioos:station:TCOON:170:1,2017-08-15T13:30:00Z,27.2970,-97.4049,0.0,46.0,1111122 
TCOON,ioos:station:TCOON:170:1,2017-08-15T14:30:00Z,27.2970,-97.4049,0.0,46.2,1111122 
TCOON,ioos:station:TCOON:170:1,2017-08-15T15:30:00Z,27.2970,-97.4049,0.0,46.4,1111122 
TCOON,ioos:station:TCOON:170:1,2017-08-15T16:30:00Z,27.2970,-97.4049,0.0,46.4,1111122 
TCOON,ioos:station:TCOON:170:1,2017-08-16T11:30:00Z,27.2970,-97.4049,0.0,45.4,1111122 
TCOON,ioos:station:TCOON:170:1,2017-08-16T12:30:00Z,27.2970,-97.4049,0.0,45.5,1111122 
TCOON,ioos:station:TCOON:170:1,2017-08-16T13:30:00Z,27.2970,-97.4049,0.0,45.7,1111122 
TCOON,ioos:station:TCOON:170:1,2017-08-16T14:30:00Z,27.2970,-97.4049,0.0,45.9,1111122 
TCOON,ioos:station:TCOON:170:1,2017-08-16T15:30:00Z,27.2970,-97.4049,0.0,46.3,1111122 
TCOON,ioos:station:TCOON:170:1,2017-08-16T16:30:00Z,27.2970,-97.4049,0.0,46.2,1111122 
TCOON,ioos:station:TCOON:170:1,2017-08-16T17:30:00Z,27.2970,-97.4049,0.0,46.3,1111122 
TCOON,ioos:station:TCOON:170:1,2017-08-16T20:30:00Z,27.2970,-97.4049,0.0,46.5,1111122 
TCOON,ioos:station:TCOON:170:1,2017-08-16T21:30:00Z,27.2970,-97.4049,0.0,46.4,1111122 
TCOON,ioos:station:TCOON:170:1,2017-08-16T22:30:00Z,27.2970,-97.4049,0.0,46.4,1111122 
TCOON,ioos:station:TCOON:170:1,2017-08-17T04:30:00Z,27.2970,-97.4049,0.0,46.4,1111122 
TCOON,ioos:station:TCOON:170:1,2017-08-17T05:30:00Z,27.2970,-97.4049,0.0,46.4,1111122 
TCOON,ioos:station:TCOON:170:1,2017-08-17T06:30:00Z,27.2970,-97.4049,0.0,46.3,1111122 
TCOON,ioos:station:TCOON:170:1,2017-08-17T07:30:00Z,27.2970,-97.4049,0.0,46.0,1111122 
TCOON,ioos:station:TCOON:170:1,2017-08-17T08:30:00Z,27.2970,-97.4049,0.0,45.5,1111122 
TCOON,ioos:station:TCOON:170:1,2017-08-17T09:30:00Z,27.2970,-97.4049,0.0,45.6,1111122 
TCOON,ioos:station:TCOON:170:1,2017-08-17T10:30:00Z,27.2970,-97.4049,0.0,45.8,1111122 
TCOON,ioos:station:TCOON:170:1,2017-08-17T11:30:00Z,27.2970,-97.4049,0.0,46.0,1111122 
TCOON,ioos:station:TCOON:170:1,2017-08-17T12:30:00Z,27.2970,-97.4049,0.0,46.0,1111122 
TCOON,ioos:station:TCOON:170:1,2017-08-17T13:30:00Z,27.2970,-97.4049,0.0,46.3,1111122 
TCOON,ioos:station:TCOON:170:1,2017-08-17T14:30:00Z,27.2970,-97.4049,0.0,46.6,1111122 
TCOON,ioos:station:TCOON:170:1,2017-08-17T15:30:00Z,27.2970,-97.4049,0.0,46.7,1111122 
TCOON,ioos:station:TCOON:170:1,2017-08-17T16:30:00Z,27.2970,-97.4049,0.0,46.7,1111122 
TCOON,ioos:station:TCOON:170:1,2017-08-17T17:30:00Z,27.2970,-97.4049,0.0,46.5,1111122 
TCOON,ioos:station:TCOON:170:1,2017-08-17T18:30:00Z,27.2970,-97.4049,0.0,46.6,1111122 
TCOON,ioos:station:TCOON:170:1,2017-08-17T19:30:00Z,27.2970,-97.4049,0.0,46.5,1111122 
TCOON,ioos:station:TCOON:170:1,2017-08-17T20:30:00Z,27.2970,-97.4049,0.0,46.5,1111122 
TCOON,ioos:station:TCOON:170:1,2017-08-17T22:30:00Z,27.2970,-97.4049,0.0,46.6,1111122 
TCOON,ioos:station:TCOON:170:1,2017-08-18T00:30:00Z,27.2970,-97.4049,0.0,46.6,1111122 
TCOON,ioos:station:TCOON:170:1,2017-08-18T01:30:00Z,27.2970,-97.4049,0.0,46.6,1111122 
TCOON,ioos:station:TCOON:170:1,2017-08-18T02:30:00Z,27.2970,-97.4049,0.0,46.7,1111122 
TCOON,ioos:station:TCOON:170:1,2017-08-18T05:30:00Z,27.2970,-97.4049,0.0,46.6,1111122 
TCOON,ioos:station:TCOON:170:1,2017-08-18T06:30:00Z,27.2970,-97.4049,0.0,46.6,1111122 
TCOON,ioos:station:TCOON:170:1,2017-08-18T07:30:00Z,27.2970,-97.4049,0.0,46.7,1111122 
TCOON,ioos:station:TCOON:170:1,2017-08-18T08:30:00Z,27.2970,-97.4049,0.0,46.6,1111122 
TCOON,ioos:station:TCOON:170:1,2017-08-18T09:30:00Z,27.2970,-97.4049,0.0,46.3,1111122 
TCOON,ioos:station:TCOON:170:1,2017-08-18T10:30:00Z,27.2970,-97.4049,0.0,46.0,1111122 
TCOON,ioos:station:TCOON:170:1,2017-08-18T11:30:00Z,27.2970,-97.4049,0.0,46.0,1111122 
TCOON,ioos:station:TCOON:170:1,2017-08-18T12:30:00Z,27.2970,-97.4049,0.0,46.1,1111122 
TCOON,ioos:station:TCOON:170:1,2017-08-18T13:30:00Z,27.2970,-97.4049,0.0,46.2,1111122 
TCOON,ioos:station:TCOON:170:1,2017-08-18T14:30:00Z,27.2970,-97.4049,0.0,46.3,1111122 
TCOON,ioos:station:TCOON:170:1,2017-08-18T15:30:00Z,27.2970,-97.4049,0.0,46.4,1111122 
TCOON,ioos:station:TCOON:170:1,2017-08-18T16:30:00Z,27.2970,-97.4049,0.0,46.5,1111122 
TCOON,ioos:station:TCOON:170:1,2017-08-18T17:30:00Z,27.2970,-97.4049,0.0,46.6,1111122 
TCOON,ioos:station:TCOON:170:1,2017-08-18T18:30:00Z,27.2970,-97.4049,0.0,46.6,1111122 
TCOON,ioos:station:TCOON:170:1,2017-08-18T19:30:00Z,27.2970,-97.4049,0.0,46.6,1111122 
TCOON,ioos:station:TCOON:170:1,2017-08-18T21:00:00Z,27.2970,-97.4049,0.0,46.7,1111122 
TCOON,ioos:station:TCOON:170:1,2017-08-18T22:00:00Z,27.2970,-97.4049,0.0,46.7,1111122 
TCOON,ioos:station:TCOON:170:1,2017-08-18T23:00:00Z,27.2970,-97.4049,0.0,46.6,1111122 
TCOON,ioos:station:TCOON:170:1,2017-08-19T00:00:00Z,27.2970,-97.4049,0.0,46.6,1111122 
TCOON,ioos:station:TCOON:170:1,2017-08-19T06:30:00Z,27.2970,-97.4049,0.0,46.3,1111122 
TCOON,ioos:station:TCOON:170:1,2017-08-19T07:30:00Z,27.2970,-97.4049,0.0,46.3,1111122 
TCOON,ioos:station:TCOON:170:1,2017-08-19T10:30:00Z,27.2970,-97.4049,0.0,46.6,1111122 
TCOON,ioos:station:TCOON:170:1,2017-08-19T11:30:00Z,27.2970,-97.4049,0.0,46.6,1111122 
TCOON,ioos:station:TCOON:170:1,2017-08-19T13:30:00Z,27.2970,-97.4049,0.0,46.7,1111122 
TCOON,ioos:station:TCOON:170:1,2017-08-19T15:30:00Z,27.2970,-97.4049,0.0,46.8,1111122 
TCOON,ioos:station:TCOON:170:1,2017-08-19T16:30:00Z,27.2970,-97.4049,0.0,46.9,1111122 
TCOON,ioos:station:TCOON:170:1,2017-08-19T18:30:00Z,27.2970,-97.4049,0.0,46.8,1111122 
TCOON,ioos:station:TCOON:170:1,2017-08-19T20:30:00Z,27.2970,-97.4049,0.0,46.9,1111122 
TCOON,ioos:station:TCOON:170:1,2017-08-19T21:30:00Z,27.2970,-97.4049,0.0,46.9,1111122 
TCOON,ioos:station:TCOON:170:1,2017-08-19T22:30:00Z,27.2970,-97.4049,0.0,46.8,1111122 
TCOON,ioos:station:TCOON:170:1,2017-08-19T23:30:00Z,27.2970,-97.4049,0.0,46.8,1111122 
TCOON,ioos:station:TCOON:170:1,2017-08-20T00:30:00Z,27.2970,-97.4049,0.0,46.7,1111122 
TCOON,ioos:station:TCOON:170:1,2017-08-20T01:30:00Z,27.2970,-97.4049,0.0,46.8,1111122 
TCOON,ioos:station:TCOON:170:1,2017-08-20T02:30:00Z,27.2970,-97.4049,0.0,46.8,1111122 
TCOON,ioos:station:TCOON:170:1,2017-08-20T03:30:00Z,27.2970,-97.4049,0.0,46.5,1111122 
TCOON,ioos:station:TCOON:170:1,2017-08-20T06:30:00Z,27.2970,-97.4049,0.0,46.6,1111122 
TCOON,ioos:station:TCOON:170:1,2017-08-20T07:30:00Z,27.2970,-97.4049,0.0,46.6,1111122 
TCOON,ioos:station:TCOON:170:1,2017-08-20T09:30:00Z,27.2970,-97.4049,0.0,46.7,1111122 
TCOON,ioos:station:TCOON:170:1,2017-08-20T11:30:00Z,27.2970,-97.4049,0.0,46.9,1111122 
TCOON,ioos:station:TCOON:170:1,2017-08-20T14:30:00Z,27.2970,-97.4049,0.0,46.9,1111122 